Wind_Speed
15 18 18 17 18 20 20 17 15 13 13 12 10 10 11 9 9 9 8 6 6 7 7 11 11 8 5 7 5 2 8 10 11 13 10 9 8 7 5 5 5 10 12
13 14 17 18 22 19 17 15 14 11 9 11 8 12 9 7 11 9 7 5 6 8 8 9 10 9 6 4 5 9 12 9 5 15 12 8 3 5 4 5 3 6 11
16 18 18 23 23 19 20 17 10 9 9 7 9 7 7 9 10 8 6 6 5 6 7 7 8 6 6 6 8 12 12 10 7 7 12 8 3 2 6 6 6 7 8
18 20 23 24 21 19 19 14 13 7 4 5 8 9 8 9 9 8 7 6 5 6 7 8 8 7 6 6 9 11 10 12 11 7 8 6 4 7 7 7 7 8 4
22 24 24 23 21 21 19 17 14 10 10 11 10 10 9 9 10 10 8 5 4 7 9 10 9 7 6 8 9 10 8 8 10 8 5 4 5 6 9 4 10 10 4
25 25 25 24 23 20 21 17 15 13 13 14 12 10 11 11 12 10 6 5 7 10 11 10 9 8 7 8 9 7 7 7 10 8 7 5 2 4 5 5 10 10 5
29 23 25 26 23 19 18 17 14 14 15 12 13 13 12 11 10 9 7 6 11 11 10 9 8 7 5 5 6 5 5 7 8 7 4 3 3 4 4 5 2 3 3
29 25 25 27 25 21 19 17 15 15 13 13 14 15 16 14 12 10 7 10 13 10 7 8 5 3 3 4 4 5 5 6 6 6 6 6 6 4 1 3 2 0 2
27 26 26 27 27 23 21 19 18 17 15 14 16 18 17 16 14 14 12 12 13 10 7 6 4 4 4 2 1 3 6 9 9 8 7 8 7 7 6 0 4 5 4
28 26 27 27 26 24 23 21 18 16 14 16 17 17 16 16 18 19 16 13 13 9 7 7 8 7 7 6 4 5 7 10 9 7 4 2 4 4 5 3 2 1 2
29 28 26 24 23 21 19 20 19 17 17 17 17 17 17 17 20 22 19 15 12 11 10 10 9 7 7 7 6 6 6 8 7 5 6 4 2 4 4 2 4 3 5
28 31 28 25 24 22 21 22 22 20 19 19 20 19 18 19 22 23 19 16 14 13 12 12 9 5 4 5 7 8 10 10 8 7 7 6 5 5 3 2 5 3 2
29 30 27 27 26 24 24 24 24 23 22 21 21 22 21 21 23 24 21 19 17 16 15 12 9 6 4 6 7 9 11 10 10 8 7 7 7 6 5 4 6 8 4
31 32 32 31 29 27 26 26 26 25 25 23 23 24 22 22 23 25 26 24 22 19 17 15 13 12 9 8 9 12 13 11 11 11 9 10 10 9 7 5 7 7 5
32 32 32 32 31 29 28 26 27 26 24 21 19 22 23 23 22 22 24 25 22 20 18 18 20 20 16 13 12 13 13 13 10 10 11 10 10 9 8 7 9 6 6
35 35 33 32 33 32 30 29 28 27 24 21 21 21 20 20 19 20 23 25 25 25 26 26 24 22 19 17 16 16 16 14 11 8 10 12 11 11 9 10 9 9 8
38 37 36 35 34 34 33 32 30 30 26 24 23 23 23 22 21 23 24 26 29 30 33 30 29 28 25 23 22 23 21 17 12 12 14 13 12 13 11 11 11 11 9
40 37 36 36 34 34 34 34 32 32 30 28 26 25 25 26 24 24 25 24 33 39 38 36 35 32 30 29 27 28 25 22 21 19 16 17 15 15 13 12 12 12 10
43 40 38 35 34 33 35 35 35 34 32 31 30 29 28 29 28 25 27 34 35 39 41 39 37 35 34 32 31 28 27 26 25 22 19 20 18 17 16 15 12 13 11
46 42 41 38 37 37 36 36 36 35 34 33 34 33 32 32 36 36 36 38 40 40 38 38 38 37 34 34 35 33 31 29 28 28 27 23 22 20 18 18 17 14 13
43 44 42 39 38 38 39 38 37 36 35 34 34 34 35 36 38 40 41 43 45 45 42 41 38 37 35 35 36 36 36 34 32 32 32 29 25 24 21 20 17 18 14
39 40 42 41 38 36 38 39 39 38 38 37 35 33 33 34 39 42 45 46 47 46 46 44 44 42 39 38 37 37 38 40 38 36 36 34 30 27 24 22 13 14 14
33 38 42 41 39 35 36 37 39 40 40 38 37 37 37 36 36 40 43 45 46 47 49 49 49 48 46 45 42 40 39 40 42 40 38 38 37 32 29 25 18 17 19
30 50 39 34 35 37 36 39 39 39 40 39 38 39 39 38 38 37 38 37 36 37 39 42 44 46 45 45 44 44 43 39 39 38 41 36 38 39 34 30 25 22 19
24 32 38 36 35 35 38 40 43 42 42 42 42 42 41 39 39 39 38 36 36 35 33 33 35 34 33 34 30 30 34 35 36 36 36 40 36 41 39 34 29 28 28
25 26 33 36 36 37 38 39 44 47 45 45 44 44 43 44 43 42 41 35 37 36 33 33 32 31 26 26 26 27 25 26 30 30 34 36 37 39 42 39 36 35 33
Wind_Direction
196 194 199 196 195 194 197 206 215 225 227 227 229 227 212 213 224 225 233 254 242 229 197 198 204 198 220 206 206 191 173 187 164 130 107 115 123 113 104 122 77 58 47
194 191 201 202 180 180 175 193 199 204 208 203 200 229 222 240 226 221 244 233 212 206 197 195 204 217 231 212 235 142 135 133 153 138 144 117 126 137 138 143 103 66 33
186 184 177 172 175 177 185 188 185 175 177 191 208 227 238 217 206 211 218 227 205 189 180 190 189 193 165 134 138 151 134 124 137 143 149 160 182 113 188 163 144 93 45
185 178 173 173 174 178 181 185 169 159 161 224 217 228 215 201 211 216 214 211 195 177 160 161 170 181 186 166 168 152 153 156 166 165 154 163 198 183 163 148 153 127 89
185 179 174 173 179 178 185 183 173 208 207 228 238 207 191 194 203 205 196 182 188 171 150 147 149 142 150 156 169 166 173 195 187 183 195 255 259 224 226 222 157 152 121
184 179 177 180 184 187 193 193 187 197 205 219 214 203 194 187 200 196 184 172 154 150 147 146 133 123 128 152 170 176 178 195 200 218 271 265 200 155 165 177 181 171 182
193 190 186 187 192 196 199 199 198 212 207 215 206 201 190 187 202 201 182 179 160 155 156 141 130 127 128 136 148 167 190 209 231 249 240 157 140 154 182 202 224 216 163
204 202 200 199 204 206 202 202 215 221 213 211 204 199 196 200 211 209 194 175 173 174 160 154 127 111 144 129 128 136 146 144 128 114 104 101 107 116 185 223 222 159 5
207 207 203 206 210 208 209 213 219 212 211 210 207 204 205 209 211 211 205 199 198 186 184 194 212 289 257 226 167 153 158 146 132 121 107 89 84 65 43 348 248 279 280
207 209 208 208 205 207 212 213 215 213 226 218 208 206 215 218 213 211 218 218 208 206 209 218 229 236 250 246 219 196 183 178 169 163 157 105 46 42 31 61 87 90 101
207 208 210 211 212 217 219 220 219 222 218 217 211 211 213 212 212 213 216 219 216 208 203 200 203 217 231 234 233 220 191 194 194 204 221 231 315 347 1 48 80 79 55
213 208 209 208 211 213 216 220 217 226 220 217 214 214 212 213 213 214 215 214 208 205 197 192 194 203 239 242 231 227 214 210 235 258 249 245 307 325 351 25 9 341 309
210 214 216 214 214 213 217 219 221 225 223 223 220 215 214 212 211 214 221 218 211 206 200 195 208 234 266 247 232 214 203 216 243 250 245 264 298 278 268 290 321 311 284
205 211 215 216 215 216 218 223 227 227 225 227 226 219 216 219 218 218 218 221 223 218 211 216 234 242 247 236 229 224 216 227 245 255 261 279 277 263 266 281 300 305 260
208 210 215 219 219 219 223 228 234 236 238 237 233 224 221 226 228 227 227 227 229 232 232 232 229 230 236 244 235 225 220 227 230 244 253 268 260 261 273 282 293 276 258
211 213 216 218 219 222 225 229 234 238 242 241 239 240 240 241 239 239 237 233 231 234 236 237 237 237 242 245 239 230 226 228 229 237 254 259 267 257 256 264 270 256 267
217 215 215 216 218 224 226 230 235 237 235 233 237 237 234 237 237 235 236 235 233 235 238 242 245 243 245 248 246 240 238 238 239 249 247 260 279 259 257 267 262 256 271
222 223 220 218 219 223 230 235 238 238 239 237 235 234 231 233 233 229 231 231 230 234 239 242 245 246 246 249 248 242 242 243 241 245 249 255 266 253 247 260 255 250 262
225 227 230 230 229 230 231 235 240 244 244 244 242 242 236 234 232 227 226 232 236 238 241 244 246 248 248 248 248 244 244 247 249 252 257 253 257 252 247 243 253 248 251
231 233 233 234 235 237 236 235 240 245 248 248 246 245 242 237 232 229 229 232 238 242 246 249 251 253 252 251 249 246 245 247 250 254 259 256 253 257 252 247 259 238 244
237 238 236 237 240 243 242 241 242 245 249 254 253 251 248 244 246 242 240 241 244 247 249 250 251 253 255 256 256 252 249 248 248 249 254 254 252 255 257 248 256 251 234
238 243 240 238 239 245 246 245 246 249 251 253 257 256 255 250 248 251 251 251 251 255 258 258 259 259 260 260 260 258 254 250 248 249 251 252 253 250 250 243 228 249 246
245 255 243 238 240 243 249 249 248 247 250 254 257 260 259 258 253 253 256 257 258 259 261 263 264 265 265 263 262 261 258 255 253 250 250 249 249 246 243 235 217 222 222
238 246 236 241 243 248 249 249 250 253 254 254 256 258 261 263 264 262 263 263 264 264 264 264 266 268 268 269 267 265 264 263 259 255 249 250 249 245 241 233 217 211 210
239 239 244 248 251 247 252 253 253 252 255 257 257 258 261 264 266 267 268 268 267 265 265 266 268 270 269 266 270 274 268 264 261 259 252 249 250 247 241 235 219 211 209
246 247 251 251 252 253 251 251 250 251 255 260 261 262 264 268 269 270 271 270 270 269 268 269 271 272 275 279 285 279 284 281 270 261 254 252 250 246 237 231 219 218 219
Height
1539 1542 1546 1547 1550 1553 1557 1560 1563 1564 1565 1567 1568 1568 1570 1570 1571 1572 1572 1571 1572 1573 1573 1573 1573 1573 1573 1572 1572 1572 1573 1574 1574 1578 1578 1578 1579 1579 1579 1578 1578 1576 1575
1538 1540 1542 1545 1549 1553 1556 1558 1560 1562 1564 1565 1567 1567 1569 1569 1569 1570 1571 1571 1572 1572 1572 1573 1573 1572 1572 1571 1571 1572 1572 1575 1576 1576 1578 1579 1579 1579 1578 1577 1578 1578 1575
1535 1538 1541 1544 1549 1553 1555 1557 1559 1561 1563 1563 1563 1568 1567 1568 1569 1568 1570 1571 1572 1571 1570 1571 1572 1572 1572 1572 1572 1572 1573 1575 1575 1576 1578 1579 1577 1577 1575 1575 1576 1576 1576
1534 1538 1541 1545 1548 1552 1554 1556 1558 1560 1561 1561 1565 1566 1566 1567 1566 1568 1569 1570 1570 1571 1570 1570 1571 1571 1572 1572 1572 1573 1574 1574 1576 1577 1578 1578 1577 1576 1576 1576 1577 1576 1576
1534 1537 1540 1545 1548 1551 1553 1555 1557 1557 1558 1561 1563 1564 1563 1565 1566 1568 1569 1570 1570 1571 1570 1569 1570 1570 1571 1572 1573 1574 1576 1576 1577 1577 1577 1576 1574 1575 1575 1575 1575 1574 1575
1533 1536 1540 1544 1547 1550 1552 1555 1556 1559 1560 1561 1561 1561 1562 1565 1567 1568 1570 1570 1571 1570 1570 1570 1571 1571 1571 1572 1573 1574 1575 1576 1576 1576 1575 1574 1574 1574 1574 1573 1574 1575 1575
1530 1535 1538 1542 1545 1548 1550 1552 1554 1556 1558 1558 1559 1560 1562 1565 1567 1569 1570 1570 1571 1571 1571 1571 1571 1571 1572 1572 1573 1573 1574 1574 1575 1575 1574 1573 1573 1573 1573 1573 1573 1573 1573
1526 1532 1536 1539 1542 1545 1548 1550 1553 1554 1555 1556 1558 1560 1563 1565 1566 1567 1569 1570 1571 1570 1571 1572 1572 1572 1572 1572 1573 1574 1574 1574 1574 1574 1574 1574 1573 1573 1572 1572 1573 1572 1571
1523 1528 1533 1537 1540 1542 1545 1548 1551 1552 1553 1554 1557 1559 1561 1562 1564 1566 1567 1568 1569 1569 1570 1571 1571 1571 1572 1573 1573 1573 1574 1574 1575 1575 1575 1575 1574 1574 1573 1573 1572 1573 1573
1519 1524 1529 1533 1537 1540 1543 1545 1547 1550 1552 1553 1555 1557 1559 1561 1562 1564 1565 1566 1567 1567 1568 1569 1570 1571 1570 1570 1571 1571 1571 1571 1572 1574 1574 1575 1575 1575 1574 1573 1572 1572 1572
1517 1521 1526 1529 1533 1536 1540 1542 1545 1547 1549 1551 1553 1555 1557 1557 1559 1561 1562 1564 1565 1566 1567 1568 1569 1570 1570 1571 1572 1574 1574 1574 1573 1574 1574 1574 1573 1574 1574 1574 1574 1574 1574
1512 1517 1521 1525 1529 1534 1537 1539 1541 1543 1546 1547 1550 1551 1552 1554 1556 1558 1560 1562 1563 1565 1565 1567 1568 1569 1570 1570 1571 1571 1572 1574 1575 1575 1575 1576 1576 1575 1575 1575 1574 1573 1573
1508 1512 1516 1520 1525 1529 1532 1534 1536 1539 1541 1543 1544 1546 1548 1550 1553 1555 1557 1559 1560 1562 1564 1566 1568 1568 1568 1569 1569 1570 1571 1573 1574 1573 1573 1573 1573 1573 1572 1572 1572 1572 1571
1502 1507 1512 1515 1520 1524 1527 1530 1532 1533 1535 1537 1539 1541 1544 1546 1549 1551 1553 1555 1557 1559 1562 1564 1565 1566 1566 1567 1567 1568 1569 1570 1572 1573 1573 1574 1574 1573 1572 1571 1572 1571 1570
1496 1501 1506 1510 1514 1518 1521 1523 1525 1528 1531 1532 1534 1536 1538 1541 1543 1547 1549 1551 1554 1557 1559 1560 1560 1562 1563 1564 1564 1566 1567 1568 1568 1569 1570 1570 1570 1571 1572 1571 1569 1568 1566
1492 1496 1499 1504 1509 1512 1515 1518 1520 1523 1527 1529 1531 1533 1535 1538 1542 1544 1546 1548 1551 1553 1553 1554 1556 1557 1559 1560 1560 1562 1562 1564 1565 1565 1567 1567 1567 1567 1567 1568 1567 1565 1564
1486 1489 1493 1497 1502 1505 1509 1511 1513 1516 1520 1523 1525 1527 1529 1533 1536 1538 1540 1543 1545 1546 1545 1547 1549 1551 1552 1554 1556 1556 1557 1559 1561 1561 1562 1563 1563 1564 1565 1564 1564 1563 1563
1481 1484 1487 1489 1493 1498 1502 1505 1507 1510 1512 1515 1518 1520 1523 1526 1530 1532 1535 1537 1537 1535 1537 1539 1541 1544 1547 1548 1549 1550 1553 1554 1554 1554 1555 1558 1559 1559 1559 1559 1559 1559 1559
1474 1478 1481 1484 1488 1491 1495 1497 1500 1503 1506 1508 1511 1513 1516 1520 1523 1526 1528 1525 1526 1526 1528 1531 1534 1536 1538 1541 1543 1545 1547 1548 1550 1552 1552 1554 1556 1555 1554 1553 1552 1553 1554
1466 1469 1474 1477 1481 1484 1487 1489 1492 1495 1497 1500 1501 1504 1508 1512 1512 1514 1516 1517 1517 1519 1521 1523 1525 1528 1531 1533 1535 1537 1539 1540 1542 1545 1548 1549 1551 1551 1549 1549 1548 1546 1548
1457 1460 1466 1470 1472 1476 1479 1481 1484 1487 1488 1490 1491 1496 1499 1502 1503 1504 1504 1505 1506 1508 1511 1513 1516 1519 1521 1523 1525 1528 1530 1531 1532 1534 1538 1541 1543 1544 1546 1547 1547 1548 1542
1455 1455 1461 1462 1464 1466 1469 1473 1476 1478 1480 1481 1482 1486 1489 1493 1493 1493 1494 1495 1497 1499 1502 1505 1507 1510 1512 1513 1514 1516 1518 1519 1523 1526 1529 1532 1534 1537 1539 1541 1541 1547 1548
1444 1447 1449 1452 1456 1457 1460 1464 1467 1469 1470 1472 1474 1476 1478 1480 1483 1484 1484 1486 1488 1491 1493 1494 1495 1496 1498 1500 1503 1505 1506 1507 1511 1515 1518 1521 1523 1525 1527 1530 1531 1533 1535
1436 1424 1437 1445 1447 1447 1451 1454 1458 1459 1461 1463 1465 1466 1467 1469 1471 1473 1475 1477 1478 1479 1480 1481 1481 1482 1485 1487 1490 1493 1496 1498 1500 1503 1509 1510 1512 1514 1516 1518 1519 1522 1529
1431 1433 1434 1437 1436 1439 1442 1444 1446 1448 1450 1452 1454 1456 1458 1460 1461 1462 1465 1467 1468 1468 1469 1471 1472 1474 1476 1477 1477 1479 1481 1486 1488 1493 1497 1500 1503 1506 1508 1510 1511 1515 1516
1424 1426 1426 1426 1428 1430 1434 1437 1437 1438 1439 1441 1445 1447 1449 1448 1450 1452 1455 1460 1459 1461 1463 1463 1464 1467 1469 1472 1473 1474 1474 1476 1479 1482 1488 1490 1492 1495 1498 1499 1500 1503 1509